EN

Hourly Weather Dzielow

Today, 22 October, Thursday

Time Temperature Precipitation Wind Pressure Humidity
00:00 +10°C° 0 mm 5 mps 742 mmHg 78%
01:00 +10°C° 0 mm 5 mps 743 mmHg 78%
02:00 +10°C° 0 mm 5 mps 743 mmHg 77%
03:00 +10°C° 0 mm 5 mps 743 mmHg 77%
04:00 +10°C° 0 mm 5 mps 743 mmHg 76%
05:00 +10°C° 0 mm 5 mps 743 mmHg 76%
06:00 +10°C° 0 mm 5 mps 743 mmHg 76%
07:00 +10°C° 0 mm 5 mps 743 mmHg 75%
08:00 +12°C° 0 mm 5 mps 743 mmHg 72%
09:00 +14°C° 0 mm 5 mps 743 mmHg 68%
10:00 +15°C° 0 mm 5 mps 743 mmHg 65%
11:00 +16°C° 0 mm 5 mps 743 mmHg 64%
12:00 +16°C° 0 mm 5 mps 743 mmHg 63%
13:00 +18°C° 0 mm 4 mps 743 mmHg 62%
14:00 +17°C° 0 mm 4 mps 743 mmHg 66%
15:00 +15°C° 0 mm 4 mps 743 mmHg 69%
16:00 +14°C° 0 mm 4 mps 743 mmHg 73%
17:00 +14°C° 0 mm 4 mps 743 mmHg 75%
18:00 +13°C° 0 mm 4 mps 743 mmHg 76%
19:00 +12°C° 0 mm 4 mps 743 mmHg 78%
20:00 +12°C° 0 mm 4 mps 743 mmHg 77%
21:00 +12°C° 0 mm 4 mps 743 mmHg 77%
22:00 +12°C° 0 mm 4 mps 743 mmHg 76%
23:00 +12°C° 0 mm 3 mps 743 mmHg 76%

Tomorrow, 23 October, Friday

Time Temperature Precipitation Wind Pressure Humidity
00:00 +12°C° 0 mm 3 mps 743 mmHg 76%
01:00 +11°C° 0 mm 3 mps 743 mmHg 77%
02:00 +11°C° 0 mm 3 mps 743 mmHg 78%
03:00 +11°C° 0 mm 3 mps 742 mmHg 79%
04:00 +10°C° 0 mm 3 mps 742 mmHg 81%
05:00 +10°C° 0 mm 3 mps 742 mmHg 81%
06:00 +10°C° 0 mm 4 mps 741 mmHg 81%
07:00 +10°C° 0 mm 4 mps 741 mmHg 81%
08:00 +12°C° 0 mm 4 mps 741 mmHg 77%
09:00 +13°C° 0 mm 4 mps 741 mmHg 73%
10:00 +15°C° 0 mm 4 mps 741 mmHg 69%
11:00 +15°C° 0 mm 4 mps 741 mmHg 68%
12:00 +17°C° 0 mm 4 mps 740 mmHg 66%
13:00 +18°C° 0 mm 4 mps 740 mmHg 65%
14:00 +17°C° 0 mm 4 mps 740 mmHg 69%
15:00 +16°C° 0 mm 3 mps 740 mmHg 73%
16:00 +14°C° 0 mm 3 mps 739 mmHg 77%
17:00 +14°C° 0 mm 3 mps 739 mmHg 79%
18:00 +14°C° 0 mm 2 mps 739 mmHg 80%
19:00 +14°C° 0 mm 2 mps 739 mmHg 82%
20:00 +13°C° 0 mm 2 mps 739 mmHg 83%
21:00 +13°C° 0 mm 2 mps 739 mmHg 84%
22:00 +13°C° 0 mm 2 mps 739 mmHg 84%
23:00 +13°C° 0.1 mm 2 mps 739 mmHg 85%

Day after tomorrow, 24 October, Saturday

Time Temperature Precipitation Wind Pressure Humidity
00:00 +13°C° 0.1 mm 2 mps 739 mmHg 85%
01:00 +13°C° 0.1 mm 2 mps 739 mmHg 85%
02:00 +13°C° 0.6 mm 2 mps 739 mmHg 87%
03:00 +13°C° 0.6 mm 2 mps 739 mmHg 90%
04:00 +13°C° 0.6 mm 2 mps 739 mmHg 92%
05:00 +13°C° 0.4 mm 2 mps 739 mmHg 92%
06:00 +12°C° 0.4 mm 3 mps 740 mmHg 91%
07:00 +12°C° 0.4 mm 3 mps 740 mmHg 91%
08:00 +13°C° 0 mm 3 mps 740 mmHg 86%
09:00 +14°C° 0 mm 4 mps 740 mmHg 80%
10:00 +15°C° 0 mm 4 mps 741 mmHg 75%
11:00 +17°C° 0.2 mm 4 mps 741 mmHg 72%
12:00 +16°C° 0.2 mm 5 mps 741 mmHg 68%
13:00 +16°C° 0.2 mm 5 mps 741 mmHg 64%
14:00 +17°C° 0.1 mm 4 mps 741 mmHg 67%
15:00 +15°C° 0.1 mm 4 mps 742 mmHg 70%
16:00 +14°C° 0.1 mm 3 mps 742 mmHg 74%
17:00 +13°C° 0 mm 3 mps 742 mmHg 75%
18:00 +11°C° 0 mm 3 mps 743 mmHg 76%
19:00 +10°C° 0 mm 2 mps 743 mmHg 77%
20:00 +10°C° 0 mm 2 mps 744 mmHg 77%
21:00 +9°C° 0 mm 2 mps 744 mmHg 78%
22:00 +10°C° 0 mm 1 mps 744 mmHg 79%
23:00 +10°C° 0 mm 1 mps 744 mmHg 80%

25 October, Sunday

Time Temperature Precipitation Wind Pressure Humidity
00:00 +10°C° 0 mm 1 mps 744 mmHg 80%
01:00 +9°C° 0 mm 1 mps 744 mmHg 81%
02:00 +9°C° 0 mm 1 mps 744 mmHg 82%
03:00 +8°C° 0 mm 2 mps 744 mmHg 83%
04:00 +8°C° 0 mm 2 mps 744 mmHg 85%
05:00 +8°C° 0 mm 2 mps 744 mmHg 85%
06:00 +8°C° 0 mm 2 mps 744 mmHg 86%
07:00 +8°C° 0 mm 2 mps 744 mmHg 87%
08:00 +9°C° 0 mm 2 mps 744 mmHg 81%
09:00 +11°C° 0 mm 3 mps 744 mmHg 76%
10:00 +13°C° 0 mm 3 mps 743 mmHg 70%
11:00 +14°C° 0 mm 3 mps 743 mmHg 67%
12:00 +14°C° 0 mm 3 mps 743 mmHg 64%
13:00 +16°C° 0 mm 3 mps 742 mmHg 61%
14:00 +16°C° 0 mm 2 mps 742 mmHg 64%
15:00 +15°C° 0 mm 2 mps 742 mmHg 68%
16:00 +14°C° 0 mm 2 mps 741 mmHg 71%
17:00 +13°C° 0 mm 2 mps 741 mmHg 74%
18:00 +12°C° 0 mm 2 mps 741 mmHg 76%
19:00 +10°C° 0 mm 2 mps 741 mmHg 78%
20:00 +10°C° 0 mm 2 mps 741 mmHg 80%
21:00 +10°C° 0 mm 2 mps 741 mmHg 82%
22:00 +9°C° 0 mm 3 mps 741 mmHg 83%
23:00 +9°C° 0 mm 2 mps 741 mmHg 85%

26 October, Monday

Time Temperature Precipitation Wind Pressure Humidity
00:00 +9°C° 0 mm 2 mps 741 mmHg 86%
01:00 +9°C° 0 mm 2 mps 740 mmHg 88%
02:00 +9°C° 0 mm 2 mps 740 mmHg 88%
03:00 +8°C° 0 mm 2 mps 740 mmHg 89%
04:00 +8°C° 0 mm 2 mps 740 mmHg 89%
05:00 +8°C° 0 mm 2 mps 740 mmHg 89%
06:00 +8°C° 0 mm 2 mps 740 mmHg 89%
07:00 +8°C° 0 mm 2 mps 740 mmHg 89%
08:00 +10°C° 0 mm 3 mps 739 mmHg 82%
09:00 +11°C° 0 mm 3 mps 739 mmHg 75%
10:00 +13°C° 0 mm 4 mps 739 mmHg 69%
11:00 +14°C° 0 mm 4 mps 739 mmHg 66%
12:00 +15°C° 0 mm 5 mps 739 mmHg 63%
13:00 +16°C° 0 mm 5 mps 739 mmHg 60%
14:00 +17°C° 0 mm 4 mps 738 mmHg 65%
15:00 +15°C° 0 mm 4 mps 738 mmHg 69%
16:00 +14°C° 0 mm 3 mps 738 mmHg 73%
17:00 +14°C° 0 mm 3 mps 738 mmHg 75%
18:00 +13°C° 0 mm 3 mps 738 mmHg 77%
19:00 +13°C° 0 mm 2 mps 738 mmHg 80%
20:00 +13°C° 0 mm 2 mps 738 mmHg 81%
21:00 +12°C° 0 mm 2 mps 739 mmHg 83%
22:00 +12°C° 0 mm 2 mps 739 mmHg 85%
23:00 +11°C° 0 mm 1 mps 739 mmHg 85%

27 October, Tuesday

Time Temperature Precipitation Wind Pressure Humidity
00:00 +11°C° 0 mm 1 mps 739 mmHg 86%
01:00 +11°C° 0 mm 1 mps 739 mmHg 86%
02:00 +11°C° 0 mm 1 mps 739 mmHg 86%
03:00 +11°C° 0 mm 1 mps 739 mmHg 87%
04:00 +11°C° 0 mm 1 mps 739 mmHg 87%
05:00 +11°C° 0.1 mm 1 mps 739 mmHg 87%
06:00 +11°C° 0.1 mm 1 mps 739 mmHg 87%
07:00 +11°C° 0.1 mm 1 mps 739 mmHg 88%
08:00 +12°C° 0 mm 1 mps 739 mmHg 85%
09:00 +13°C° 0 mm 2 mps 740 mmHg 82%
10:00 +14°C° 0 mm 2 mps 740 mmHg 79%
11:00 +14°C° 0 mm 2 mps 740 mmHg 77%
12:00 +15°C° 0 mm 2 mps 740 mmHg 75%
13:00 +16°C° 0 mm 3 mps 741 mmHg 73%
14:00 +15°C° 0 mm 2 mps 741 mmHg 75%
15:00 +15°C° 0 mm 2 mps 741 mmHg 77%
16:00 +14°C° 0 mm 1 mps 741 mmHg 79%
17:00 +14°C° 0 mm 1 mps 741 mmHg 81%
18:00 +13°C° 0 mm 1 mps 742 mmHg 83%
19:00 +13°C° 0 mm 2 mps 742 mmHg 85%
20:00 +13°C° 0 mm 2 mps 743 mmHg 86%
21:00 +13°C° 0 mm 2 mps 743 mmHg 86%
22:00 +12°C° 0 mm 2 mps 743 mmHg 86%
23:00 +12°C° 0 mm 1 mps 743 mmHg 86%
Show more